sat.trackr.live / text

‹ back to catalog

STARLINK-5712

NORAD 55615 · 2023-020AY

PAYLOAD ACTIVE UNKNOWN

§ Identity

Operator
Country
US
Launch date
2023-02-12
Launch site
AFETR
Launch vehicle
Mass (kg)
RCS (m²)

Purposes: comms

External: N2YO · Heavens-Above · Gunter

§ Orbital elements

Epoch: 2026-05-25T01:33:29.051712Z

Period
94.27 min
Inclination
43.0024°
Eccentricity
0.0001307
Mean motion
15.27591365 rev/d
Perigee alt
482.1 km
Apogee alt
483.9 km
Semi-major
6,861.2 km
B*
7.4140e-5
RAAN
282.5823°
Arg perigee
274.2183°
Mean anomaly
85.8520°
Rev number
18,072

§ Raw data

STARLINK-57121 55615U 23020AY  26145.06491958  .00001779  00000+0  74140-4 0  99922 55615  43.0024 282.5823 0001307 274.2183  85.8520 15.27591365180725

JSON: /api/v1/satellites/55615 · /tle

For live sub-satellite position, see the globe view (requires WebGL).

§ Visibility from observer

Set your observer location to see the next 7 days of passes ≥ 10°. The values pass through the URL so the page stays shareable.

No JS? Fill the form by hand. The geolocation button needs JavaScript.